SCP
0 0 0 0 0 0 0 0 0 -0 0 -0 0 -0 -0 -0 0 0 0 0 0 0 0 0 0 0 0 0 0 0 0 -0
0 0 0 0 0 0 0 0 -0 -0 0 0 -0 -0 -0 -0 -0 0 0 0 0 0 0 0 0 0 0 0 0 0 0 0
0 0 0 0 0 0 0 0 0 0 -0 -0 -0 0 -0 -0 -0 -0 0 0 0 0 0 0 0 0 0 0 0 0 0 0
0 0 0 0 0 0 0 0 0 0 0 0 -0 -0 -0 -0 0 -0 0 0 0 0 0 0 0 0 0 0 0 0 0 0
0 0 0 0 0 0 0 0 0 0 0 0 -0 -0 -0 -0 0 0 0 0 0 0 0 0 0 0 0 0 0 0 0 0
0 0 0 0 0 0 0 0 0 0 0 0 -0 -0 -0 0 0 0 0 0 0 0 0 0 0 0 0 0 0 0 0 0
0 0 0 0 0 0 0 0 0 0 0 0 0 0 0 0 0 -0 -0 0 0 0 0 0 0 0 0 0 0 0 0 0
0 0 0 0 0 0 0 0 0 0 0 0 0 0 0 0 0 0 0 0 0 0 0 0 0 0 0 0 0 0 0 0
0 0 0 0 0 0 0 -0 -0 0 -0 -0 0 0 0 0 0 0 0 0 0 0 0 0 0 0 0 0 0 1 0 0
0 0 0 0 0 0 0 0 0 0 0 0 0 0 0 0 0 0 0 0 0 0 0 0 0 0 0 0 0 0 0 0
0 0 0 0 0 0 0 0 0 0 -0 0 0 0 0 0 0 0 0 0 0 0 0 0 -0 0 0 0 0 0 0 0
0 0 0 0 0 0 0 0 0 0 0 0 0 0 0 0 0 0 0 0 0 0 0 0 0 0 0 0 0 0 0 0
0 0 0 0 0 0 0 0 0 0 0 0 0 0 0 0 0 0 0 0 0 0 0 0 0 0 0 0 0 0 0 0
0 0 0 0 0 0 0 0 0 0 0 0 0 0 0 0 0 0 0 0 0 0 0 0 0 0 0 0 0 0 0 0
0 0 0 0 0 0 0 0 0 0 0 0 0 0 0 0 0 0 0 0 0 0 0 0 0 0 0 0 0 0 0 -0
0 0 0 0 0 0 0 0 0 0 0 0 0 0 0 0 -0 0 0 0 0 0 0 0 0 0 0 0 0 0 0 0
0 0 0 0 0 0 0 0 0 0 0 0 0 0 0 0 0 0 0 0 0 0 0 0 0 0 0 0 0 0 0 0
0 0 0 0 0 0 0 0 0 0 0 0 -0 -0 -0 -0 0 0 0 0 0 0 0 0 0 0 0 0 0 0 0 0
0 0 0 0 0 0 0 0 0 0 0 0 0 -0 -0 -0 0 0 0 0 0 0 0 0 0 0 0 0 0 0 0 0
Wind_Speed_500mb
8 8 14 11 9 9 11 4 2 8 12 8 6 15 27 36 55 67 62 75 86 92 85 81 73 65 66 61 56 52 48 45
9 11 2 11 12 4 4 8 7 7 7 8 18 10 20 28 48 71 84 80 85 94 90 83 75 65 62 61 53 52 52 45
4 7 16 4 4 3 8 6 8 2 6 10 26 22 28 39 46 62 69 88 94 96 92 85 80 75 63 58 57 53 53 48
5 14 5 4 5 8 8 9 3 6 6 19 25 15 20 15 30 56 70 83 81 91 96 86 81 78 71 63 59 53 49 47
10 13 11 12 6 5 8 1 5 8 5 16 31 31 17 14 28 44 52 58 72 77 75 76 75 77 76 71 64 60 56 49
12 10 3 6 10 7 6 6 5 4 10 18 25 23 29 15 15 38 57 50 52 64 64 56 65 73 75 76 72 66 63 58
10 8 8 5 10 13 9 6 4 6 4 10 20 18 23 18 11 32 52 62 59 47 64 64 66 74 70 69 72 71 69 69
11 9 12 10 7 9 9 4 8 4 5 7 17 19 25 24 12 24 40 54 51 49 61 72 72 76 71 69 74 73 75 74
5 4 10 3 7 4 4 2 7 4 6 4 9 19 24 23 22 16 27 47 51 47 56 60 63 73 77 83 75 75 74 76
5 2 3 7 5 3 7 5 5 4 6 4 8 14 20 21 20 21 18 32 31 30 40 41 49 53 71 69 69 75 68 70
6 4 7 2 7 6 7 6 4 6 6 3 7 9 10 15 16 17 13 8 18 19 27 27 35 40 43 48 47 51 60 61
5 7 12 9 3 5 7 6 4 1 3 3 7 4 2 11 11 11 11 5 5 7 4 17 24 20 15 17 30 34 52 60
3 4 10 8 8 9 6 11 5 3 4 6 5 1 5 5 12 13 13 12 11 7 5 11 22 26 21 24 25 24 29 58
4 4 7 13 8 10 9 5 3 3 6 15 14 9 5 6 11 13 11 10 10 11 13 5 23 28 22 22 12 11 17 20
14 11 4 13 9 10 13 15 9 7 7 6 12 4 2 7 10 11 12 13 10 11 12 11 4 23 32 23 17 13 18 33
4 5 6 9 14 16 13 14 15 12 8 6 7 7 5 6 10 12 8 9 9 8 10 13 17 13 14 24 25 10 21 27
5 8 4 14 21 19 19 15 12 12 12 9 9 4 6 8 10 10 11 9 9 11 11 13 16 21 20 17 20 21 21 24
12 26 22 22 37 29 26 19 12 8 9 8 11 10 7 11 10 9 9 12 13 16 14 14 12 15 18 20 16 12 13 15
7 15 37 10 38 34 31 24 17 11 8 5 7 10 11 9 7 6 8 10 11 13 15 15 15 18 17 14 14 15 14 15
Wind_Direction_500mb
155 129 140 200 200 194 104 38 114 214 282 348 298 165 177 186 177 190 199 202 204 206 207 203 206 208 208 209 211 213 218 218
142 110 350 157 160 108 345 160 239 266 296 278 334 235 197 183 192 193 199 201 204 207 208 206 207 209 209 213 217 219 222 227
20 175 181 99 231 62 109 126 168 287 281 325 300 263 210 210 211 203 195 194 201 206 208 210 209 210 212 212 219 222 225 227
216 304 279 158 128 137 131 215 155 149 273 341 339 320 228 206 209 195 192 193 197 202 208 209 213 215 214 216 218 219 221 226
1 346 6 44 40 119 108 59 151 136 277 339 4 9 356 200 183 183 183 179 191 197 207 212 218 221 222 221 222 225 223 223
170 198 185 24 6 55 108 83 145 185 298 328 351 358 352 10 192 186 188 180 173 190 206 224 228 228 227 227 226 228 229 227
31 57 112 77 37 30 83 147 129 181 289 315 324 327 341 339 202 190 180 194 200 202 217 224 235 232 230 229 229 231 231 233
28 40 44 81 51 88 65 58 75 129 283 332 354 27 34 39 58 187 188 190 191 231 241 247 247 239 235 234 231 232 236 235
209 310 351 349 322 8 93 116 160 179 229 307 36 46 28 37 55 89 162 183 195 230 251 249 252 245 248 242 236 236 238 236
174 31 219 256 278 33 98 28 354 35 177 45 83 75 60 60 63 73 124 176 192 238 259 257 249 242 251 248 240 239 236 233
137 154 289 276 238 193 179 211 204 227 196 255 251 316 24 41 53 60 62 148 210 227 253 244 249 245 244 244 242 244 242 233
135 147 198 241 174 149 133 304 214 197 314 231 121 12 20 8 22 44 45 33 344 249 279 214 212 190 172 219 249 249 250 253
139 196 291 241 169 137 109 235 299 14 10 4 76 125 136 18 23 21 26 36 35 14 216 201 220 204 213 224 215 229 245 250
83 79 279 178 114 170 205 188 190 36 83 94 106 124 113 30 26 20 28 30 29 36 23 237 224 229 228 214 239 253 268 263
170 212 220 184 214 183 150 119 106 91 108 79 124 150 356 30 27 34 35 53 29 32 45 47 169 212 212 207 189 111 181 141
92 242 219 192 176 172 153 123 103 76 73 95 91 97 77 43 75 78 47 39 61 54 59 73 91 149 198 173 179 183 197 173
271 268 257 216 203 191 166 149 109 78 65 68 44 90 101 104 101 105 96 90 76 72 91 90 89 105 119 136 157 179 186 188
215 203 189 216 202 196 192 180 165 139 116 83 66 65 112 137 125 120 101 99 100 105 101 102 100 97 97 97 87 114 154 162
214 228 212 233 194 203 201 193 189 176 136 103 96 79 113 141 157 128 110 104 96 98 107 110 109 115 114 111 114 109 102 100
Wind_Speed_850mb
8 8 14 11 9 9 11 4 2 8 12 8 6 15 27 36 55 67 62 75 86 92 85 81 73 65 66 61 56 52 48 45
9 11 2 11 12 4 4 8 7 7 7 8 18 10 20 28 48 71 84 80 85 94 90 83 75 65 62 61 53 52 52 45
4 7 16 4 4 3 8 6 8 2 6 10 26 22 28 39 46 62 69 88 94 96 92 85 80 75 63 58 57 53 53 48
5 14 5 4 5 8 8 9 3 6 6 19 25 15 20 15 30 56 70 83 81 91 96 86 81 78 71 63 59 53 49 47
10 13 11 12 6 5 8 1 5 8 5 16 31 31 17 14 28 44 52 58 72 77 75 76 75 77 76 71 64 60 56 49
12 10 3 6 10 7 6 6 5 4 10 18 25 23 29 15 15 38 57 50 52 64 64 56 65 73 75 76 72 66 63 58
10 8 8 5 10 13 9 6 4 6 4 10 20 18 23 18 11 32 52 62 59 47 64 64 66 74 70 69 72 71 69 69
11 9 12 10 7 9 9 4 8 4 5 7 17 19 25 24 12 24 40 54 51 49 61 72 72 76 71 69 74 73 75 74
5 4 10 3 7 4 4 2 7 4 6 4 9 19 24 23 22 16 27 47 51 47 56 60 63 73 77 83 75 75 74 76
5 2 3 7 5 3 7 5 5 4 6 4 8 14 20 21 20 21 18 32 31 30 40 41 49 53 71 69 69 75 68 70
6 4 7 2 7 6 7 6 4 6 6 3 7 9 10 15 16 17 13 8 18 19 27 27 35 40 43 48 47 51 60 61
5 7 12 9 3 5 7 6 4 1 3 3 7 4 2 11 11 11 11 5 5 7 4 17 24 20 15 17 30 34 52 60
3 4 10 8 8 9 6 11 5 3 4 6 5 1 5 5 12 13 13 12 11 7 5 11 22 26 21 24 25 24 29 58
4 4 7 13 8 10 9 5 3 3 6 15 14 9 5 6 11 13 11 10 10 11 13 5 23 28 22 22 12 11 17 20
14 11 4 13 9 10 13 15 9 7 7 6 12 4 2 7 10 11 12 13 10 11 12 11 4 23 32 23 17 13 18 33
4 5 6 9 14 16 13 14 15 12 8 6 7 7 5 6 10 12 8 9 9 8 10 13 17 13 14 24 25 10 21 27
5 8 4 14 21 19 19 15 12 12 12 9 9 4 6 8 10 10 11 9 9 11 11 13 16 21 20 17 20 21 21 24
12 26 22 22 37 29 26 19 12 8 9 8 11 10 7 11 10 9 9 12 13 16 14 14 12 15 18 20 16 12 13 15
7 15 37 10 38 34 31 24 17 11 8 5 7 10 11 9 7 6 8 10 11 13 15 15 15 18 17 14 14 15 14 15
Wind_Direction_850mb
155 129 140 200 200 194 104 38 114 214 282 348 298 165 177 186 177 190 199 202 204 206 207 203 206 208 208 209 211 213 218 218
142 110 350 157 160 108 345 160 239 266 296 278 334 235 197 183 192 193 199 201 204 207 208 206 207 209 209 213 217 219 222 227
20 175 181 99 231 62 109 126 168 287 281 325 300 263 210 210 211 203 195 194 201 206 208 210 209 210 212 212 219 222 225 227
216 304 279 158 128 137 131 215 155 149 273 341 339 320 228 206 209 195 192 193 197 202 208 209 213 215 214 216 218 219 221 226
1 346 6 44 40 119 108 59 151 136 277 339 4 9 356 200 183 183 183 179 191 197 207 212 218 221 222 221 222 225 223 223
170 198 185 24 6 55 108 83 145 185 298 328 351 358 352 10 192 186 188 180 173 190 206 224 228 228 227 227 226 228 229 227
31 57 112 77 37 30 83 147 129 181 289 315 324 327 341 339 202 190 180 194 200 202 217 224 235 232 230 229 229 231 231 233
28 40 44 81 51 88 65 58 75 129 283 332 354 27 34 39 58 187 188 190 191 231 241 247 247 239 235 234 231 232 236 235
209 310 351 349 322 8 93 116 160 179 229 307 36 46 28 37 55 89 162 183 195 230 251 249 252 245 248 242 236 236 238 236
174 31 219 256 278 33 98 28 354 35 177 45 83 75 60 60 63 73 124 176 192 238 259 257 249 242 251 248 240 239 236 233
137 154 289 276 238 193 179 211 204 227 196 255 251 316 24 41 53 60 62 148 210 227 253 244 249 245 244 244 242 244 242 233
135 147 198 241 174 149 133 304 214 197 314 231 121 12 20 8 22 44 45 33 344 249 279 214 212 190 172 219 249 249 250 253
139 196 291 241 169 137 109 235 299 14 10 4 76 125 136 18 23 21 26 36 35 14 216 201 220 204 213 224 215 229 245 250
83 79 279 178 114 170 205 188 190 36 83 94 106 124 113 30 26 20 28 30 29 36 23 237 224 229 228 214 239 253 268 263
170 212 220 184 214 183 150 119 106 91 108 79 124 150 356 30 27 34 35 53 29 32 45 47 169 212 212 207 189 111 181 141
92 242 219 192 176 172 153 123 103 76 73 95 91 97 77 43 75 78 47 39 61 54 59 73 91 149 198 173 179 183 197 173
271 268 257 216 203 191 166 149 109 78 65 68 44 90 101 104 101 105 96 90 76 72 91 90 89 105 119 136 157 179 186 188
215 203 189 216 202 196 192 180 165 139 116 83 66 65 112 137 125 120 101 99 100 105 101 102 100 97 97 97 87 114 154 162
214 228 212 233 194 203 201 193 189 176 136 103 96 79 113 141 157 128 110 104 96 98 107 110 109 115 114 111 114 109 102 100